Hourly Data Report for June 30, 2021

WRIGLEY A
NORTHWEST TERRITORIES
Current Station Operator: NAVCAN

63°12'35.000" N
123°26'12.000" W
149.70 m
2204005
YWY

Download Data

Hourly Data (June 2021)
Hourly Data Report for June 30, 2021
TIME
LST
Temp Definition
°C
Dew Point Definition
°C
Rel Hum Definition
%
Precip. Amount Definition
mm

Wind Dir Definition
10's deg

Wind Spd Definition
km/h
Visibility Definition
km
Stn Press Definition
kPa
Hmdx Definition


Wind Chill Definition


Weather Definition


00:00 19.9 16.7 82 LegendMM 31 8 LegendMM 98.85     LegendNANA
01:00 19.8 17.0 84 LegendMM 29 15 LegendMM 98.93     LegendNANA
02:00 18.6 16.8 89 LegendMM 31 28 LegendMM 99.09     LegendNANA
03:00 17.4 17.1 98 LegendMM 35 2 LegendMM 99.08     LegendNANA
04:00 16.8 16.5 98 LegendMM 31 15 LegendMM 99.05     LegendNANA
05:00 17.0 16.6 97 LegendMM 34 10 LegendMM 99.09     LegendNANA
06:00 16.4 16.1 98 LegendMM 33 8 LegendMM 99.09     LegendNANA
07:00 16.1 15.7 98 LegendMM 33 8 LegendMM 99.18     LegendNANA
08:00 16.1 15.6 97 LegendMM 32 7 LegendMM 99.22     LegendNANA
09:00 16.0 15.5 97 LegendMM 32 13 LegendMM 99.23     LegendNANA
10:00 16.0 15.2 95 LegendMM 32 14 LegendMM 99.31     LegendNANA
11:00 16.2 15.3 94 LegendMM 34 9 LegendMM 99.36     LegendNANA
12:00 16.8 15.8 94 LegendMM 33 7 LegendMM 99.43     LegendNANA
13:00 16.9 15.5 91 LegendMM 32 13 LegendMM 99.48     LegendNANA
14:00 17.3 15.7 90 LegendMM 32 14 LegendMM 99.54     LegendNANA
15:00 16.1 13.9 87 LegendMM 35 12 LegendMM 99.65     LegendNANA
16:00 15.3 12.4 83 LegendMM 33 14 LegendMM 99.74     LegendNANA
17:00 16.9 13.1 78 LegendMM 34 10 LegendMM 99.71     LegendNANA
18:00 16.2 13.2 82 LegendMM 31 10 LegendMM 99.74     LegendNANA
19:00 16.6 13.4 81 LegendMM 35 3 LegendMM 99.76     LegendNANA
20:00 16.3 13.5 83 LegendMM 35 3 LegendMM 99.84     LegendNANA
21:00 16.3 13.6 83 LegendMM 33 4 LegendMM 99.81     LegendNANA
22:00 16.0 13.8 87 LegendMM 33 3 LegendMM 99.80     LegendNANA
23:00 15.7 13.1 84 LegendMM 32 5 LegendMM 99.86     LegendNANA

Notes on Data Quality.

Legend

  • E = Estimated
  • M = Missing
  • NA = Not Available*
  • [empty] = Indicates an unobserved value
Date modified: